I4GOS-3 Weather Reports


Display with metric or nautical units.
time (UTC)temp
F
wind
direction
speed
MPH
gust
MPH
rain 1hr
in
rain 24hr
in
rain mn
in
humidity
%
barometer
mb
20200923223641 69 218 8.0 0.0 0.00 0.00 0.00 69 1010.4
20200923223143 69 231 0.0 0.0 0.00 0.00 0.00 69 1010.5
20200923222642 69 236 0.0 0.0 0.00 0.00 0.00 69 1010.5
20200923222139 69 206 0.0 0.0 0.00 0.00 0.00 69 1010.5
20200923221640 69 217 0.0 0.0 0.00 0.00 0.00 69 1010.6
20200923221140 69 218 2.0 0.0 0.00 0.00 0.00 69 1010.5
20200923220639 69 209 0.0 0.0 0.00 0.00 0.00 69 1010.6
20200923220140 69 203 4.0 0.0 0.00 0.01 0.00 69 1010.6
20200923215639 69 210 2.0 0.0 0.00 0.01 0.00 68 1010.6
20200923215140 69 214 2.0 0.0 0.00 0.01 0.00 68 1010.6
20200923214137 69 202 0.0 0.0 0.00 0.01 0.00 68 1010.4
20200923213637 69 203 0.0 0.0 0.00 0.01 0.00 68 1010.3
20200923213137 69 203 0.0 0.0 0.00 0.01 0.00 68 1010.4
20200923212653 69 202 0.0 0.0 0.00 0.01 0.00 68 1010.3
20200923212137 69 202 0.0 0.0 0.00 0.01 0.00 67 1010.3
20200923211640 69 203 0.0 0.0 0.00 0.01 0.00 67 1010.3
20200923211307 69 203 0.0 0.0 0.00 0.01 0.00 67 1010.2
20200923211136 69 203 0.0 0.0 0.00 0.01 0.00 67 1010.2
20200923210710 69 201 0.0 0.0 0.00 0.01 0.00 67 1010.1
20200923210636 69 201 0.0 0.0 0.00 0.01 0.00 67 1010.1
20200923210234 69 199 0.0 0.0 0.00 0.01 0.00 67 1010.1
20200923210136 69 199 0.0 0.0 0.00 0.01 0.00 67 1010.1
20200923205807 69 202 0.0 0.0 0.00 0.01 0.00 67 1010.1
20200923205635 69 202 0.0 0.0 0.00 0.01 0.00 67 1010.1
20200923205142 69 199 0.0 0.0 0.00 0.01 0.00 67 1010.1
20200923204635 70 203 0.0 0.0 0.00 0.01 0.00 66 1010.1
20200923204133 70 212 3.0 0.0 0.00 0.01 0.00 66 1010.0
20200923203633 70 197 1.0 0.0 0.00 0.01 0.00 66 1010.0
20200923203212 70 196 3.0 0.0 0.00 0.01 0.00 66 1010.0
20200923203133 70 196 3.0 0.0 0.00 0.01 0.00 66 1010.0
20200923202731 70 192 0.0 0.0 0.00 0.01 0.00 66 1010.0
20200923202634 70 192 0.0 0.0 0.00 0.01 0.00 66 1010.0
20200923202134 70 193 0.0 0.0 0.00 0.01 0.00 66 1010.0
20200923201705 70 191 5.0 0.0 0.00 0.01 0.00 66 1010.0
20200923201633 70 191 5.0 0.0 0.00 0.01 0.00 66 1010.0
20200923201132 70 190 1.0 0.0 0.00 0.01 0.00 66 1010.0
20200923200632 70 193 0.0 0.0 0.00 0.01 0.00 65 1010.1
20200923200132 71 194 1.0 0.0 0.00 0.01 0.00 65 1010.0
20200923195632 71 193 0.0 0.0 0.00 0.01 0.00 65 1010.0
20200923195130 71 191 4.0 0.0 0.00 0.01 0.00 65 1010.0
20200923194726 71 167 0.0 0.0 0.00 0.01 0.00 65 1010.0
20200923194630 71 167 0.0 0.0 0.00 0.01 0.00 65 1010.0
20200923194131 71 167 0.0 0.0 0.00 0.01 0.00 65 1009.9
20200923193629 71 167 0.0 0.0 0.00 0.01 0.00 65 1009.9
20200923193129 71 174 0.0 0.0 0.00 0.01 0.00 65 1009.9
20200923192632 71 202 0.0 0.0 0.00 0.01 0.00 65 1009.9
20200923192225 71 202 0.0 0.0 0.00 0.01 0.00 65 1009.8
20200923192130 71 202 0.0 0.0 0.00 0.01 0.00 65 1009.8
20200923191627 71 202 0.0 0.0 0.00 0.01 0.00 64 1009.8
20200923191130 71 202 0.0 0.0 0.00 0.01 0.00 64 1009.8
20200923190126 72 202 0.0 0.0 0.00 0.01 0.00 64 1009.8
20200923185624 72 191 2.0 0.0 0.00 0.01 0.00 64 1009.8
20200923185200 72 208 2.0 0.0 0.00 0.01 0.00 63 1009.8
20200923185124 72 208 2.0 0.0 0.00 0.01 0.00 63 1009.8
20200923184720 72 209 1.0 0.0 0.00 0.01 0.00 63 1009.8
20200923184624 72 209 1.0 0.0 0.00 0.01 0.00 63 1009.8
20200923184126 72 197 0.0 0.0 0.00 0.01 0.00 64 1009.7
20200923183626 72 196 4.0 0.0 0.00 0.01 0.00 64 1009.6
20200923183129 72 198 6.0 0.0 0.00 0.01 0.00 65 1009.7
20200923182623 72 214 4.0 0.0 0.00 0.01 0.00 65 1009.6
20200923182123 72 190 0.0 0.0 0.00 0.01 0.00 65 1009.6
20200923181657 73 208 0.0 0.0 0.00 0.01 0.00 65 1009.6
20200923181619 73 208 0.0 0.0 0.00 0.01 0.00 65 1009.6
20200923181119 73 202 0.0 0.0 0.00 0.01 0.00 65 1009.5
20200923180619 73 216 0.0 0.0 0.00 0.01 0.00 65 1009.6
20200923180118 73 199 4.0 0.0 0.00 0.01 0.00 65 1009.6
20200923175619 73 195 0.0 0.0 0.00 0.01 0.00 65 1009.6
20200923175118 73 190 4.0 0.0 0.00 0.01 0.00 64 1009.6
20200923174752 74 187 0.0 0.0 0.00 0.01 0.00 64 1009.5
20200923174616 74 187 0.0 0.0 0.00 0.01 0.00 64 1009.5
20200923174116 74 196 0.0 0.0 0.00 0.01 0.00 63 1009.6
20200923173616 74 189 1.0 0.0 0.00 0.01 0.00 63 1009.6
20200923173059 74 187 0.0 0.0 0.00 0.01 0.00 62 1009.5
20200923172652 74 178 0.0 0.0 0.00 0.01 0.00 62 1009.6
20200923172550 74 178 0.0 0.0 0.00 0.01 0.00 62 1009.6
20200923172050 74 186 0.0 0.0 0.00 0.01 0.00 61 1009.7
20200923171543 74 179 0.0 0.0 0.00 0.01 0.00 61 1009.7
20200923171026 74 195 0.0 0.0 0.00 0.01 0.00 60 1009.6
20200923170527 75 183 0.0 0.0 0.00 0.01 0.00 60 1009.6
20200923170027 75 195 1.0 0.0 0.00 0.01 0.00 60 1009.5
20200923165527 75 201 2.0 0.0 0.00 0.01 0.00 60 1009.5
20200923165024 75 192 0.0 0.0 0.00 0.01 0.00 60 1009.5
20200923164527 75 195 0.0 0.0 0.00 0.01 0.00 59 1009.5
20200923164021 75 199 6.0 0.0 0.00 0.01 0.00 59 1009.6
20200923163520 76 182 0.0 0.0 0.00 0.01 0.00 58 1009.5
20200923163026 76 200 2.0 0.0 0.00 0.01 0.00 58 1009.5
20200923162521 76 205 0.0 0.0 0.00 0.01 0.00 58 1009.5
20200923161518 76 199 2.0 0.0 0.00 0.01 0.00 57 1009.4
20200923161041 76 225 5.0 0.0 0.00 0.01 0.00 57 1009.4
20200923161014 76 225 5.0 0.0 0.00 0.01 0.00 57 1009.4
20200923160514 76 216 0.0 0.0 0.00 0.01 0.00 57 1009.4
20200923160018 76 203 0.0 0.0 0.00 0.01 0.00 57 1009.4
20200923155512 77 210 2.0 0.0 0.00 0.01 0.00 56 1009.4
20200923155058 77 199 1.0 0.0 0.00 0.01 0.00 56 1009.4
20200923155020 77 199 1.0 0.0 0.00 0.01 0.00 56 1009.4
20200923154513 77 198 6.0 0.0 0.00 0.01 0.00 55 1009.4
20200923153514 77 191 0.0 0.0 0.00 0.01 0.00 55 1009.2
20200923153053 77 200 0.0 0.0 0.00 0.01 0.00 55 1009.3
20200923153022 77 200 0.0 0.0 0.00 0.01 0.00 55 1009.3
20200923152458 78 222 2.0 0.0 0.00 0.01 0.00 54 1009.3
20200923152008 78 245 3.0 0.0 0.00 0.01 0.00 53 1009.3
20200923151441 78 272 0.0 0.0 0.00 0.01 0.00 53 1009.3
20200923150938 78 226 2.0 0.0 0.00 0.01 0.00 52 1009.3
20200923150435 78 262 0.0 0.0 0.00 0.01 0.00 53 1009.3
20200923145935 78 223 0.0 0.0 0.00 0.01 0.00 53 1009.2
20200923145445 78 259 0.0 0.0 0.00 0.01 0.00 53 1009.2
20200923144942 78 252 4.0 0.0 0.00 0.01 0.00 53 1009.2
20200923144522 78 274 0.0 0.0 0.00 0.01 0.00 53 1009.2
20200923144436 78 274 0.0 0.0 0.00 0.01 0.00 53 1009.2
20200923143935 78 268 3.0 0.0 0.00 0.01 0.00 53 1009.2
20200923143541 78 250 0.0 0.0 0.00 0.01 0.00 52 1009.2
20200923143433 78 250 0.0 0.0 0.00 0.01 0.00 52 1009.2
20200923142938 78 263 2.0 0.0 0.00 0.01 0.00 52 1009.2
20200923142433 78 271 0.0 0.0 0.00 0.01 0.00 52 1009.2
20200923141933 78 264 0.0 0.0 0.00 0.01 0.00 52 1009.2
20200923141519 78 241 0.0 0.0 0.00 0.01 0.00 51 1009.2
20200923141432 78 241 0.0 0.0 0.00 0.01 0.00 51 1009.2
20200923140933 78 252 0.0 0.0 0.00 0.01 0.00 51 1009.3
20200923140431 78 258 3.0 0.0 0.00 0.01 0.00 51 1009.3
20200923135931 79 283 0.0 0.0 0.00 0.01 0.00 51 1009.4
20200923135430 79 264 4.0 0.0 0.00 0.01 0.00 51 1009.4
20200923134931 79 262 0.0 0.0 0.00 0.01 0.00 50 1009.4
20200923134431 79 265 0.0 0.0 0.00 0.01 0.00 50 1009.4
20200923133930 79 299 1.0 0.0 0.00 0.01 0.00 50 1009.4
20200923133424 79 264 0.0 0.0 0.00 0.01 0.00 50 1009.4
20200923132924 79 264 0.0 0.0 0.00 0.01 0.00 50 1009.4
20200923132420 79 256 5.0 0.0 0.00 0.01 0.00 50 1009.5
20200923131922 79 280 0.0 0.0 0.00 0.01 0.00 51 1009.6
20200923131103 79 262 5.0 0.0 0.00 0.01 0.00 50 1009.6
20200923130920 79 262 5.0 0.0 0.00 0.01 0.00 50 1009.6
20200923130420 79 216 2.0 0.0 0.00 0.01 0.00 49 1009.7
20200923125921 79 225 10.0 0.0 0.00 0.01 0.00 50 1009.7
20200923125426 79 216 4.0 0.0 0.00 0.01 0.00 49 1009.5
20200923124911 79 214 6.0 0.0 0.00 0.01 0.00 49 1009.5
20200923124446 79 214 3.0 0.0 0.00 0.01 0.00 49 1009.6
20200923124411 79 214 3.0 0.0 0.00 0.01 0.00 49 1009.6
20200923123905 79 226 1.0 0.0 0.00 0.01 0.00 51 1009.6
20200923123402 79 214 8.0 0.0 0.00 0.01 0.00 51 1009.6
20200923122851 79 206 3.0 0.0 0.00 0.01 0.00 50 1009.6
20200923122352 78 181 9.0 0.0 0.00 0.01 0.00 50 1009.6
20200923121850 79 272 8.0 0.0 0.00 0.01 0.00 49 1009.7
20200923121349 79 233 5.0 0.0 0.00 0.01 0.00 49 1009.7
20200923120849 79 233 3.0 0.0 0.00 0.01 0.00 49 1009.6
20200923120423 79 221 0.0 0.0 0.00 0.01 0.00 52 1009.7
20200923120348 79 221 0.0 0.0 0.00 0.01 0.00 52 1009.7
20200923115850 79 264 6.0 0.0 0.00 0.01 0.00 49 1009.7
20200923115349 79 234 9.0 0.0 0.00 0.01 0.00 48 1009.8
20200923114848 80 211 3.0 0.0 0.00 0.01 0.00 49 1009.8
20200923114347 79 206 12.0 0.0 0.00 0.01 0.00 50 1009.9
20200923113935 79 226 5.0 0.0 0.00 0.01 0.00 51 1010.0
20200923113844 79 226 5.0 0.0 0.00 0.01 0.00 51 1010.0
20200923113349 79 201 11.0 0.0 0.00 0.01 0.00 51 1010.1
20200923112847 79 220 6.0 0.0 0.00 0.01 0.00 51 1010.1
20200923112344 79 237 6.0 0.0 0.00 0.01 0.00 51 1010.2
20200923111847 79 174 4.0 0.0 0.00 0.01 0.00 52 1010.2
20200923111343 79 171 2.0 0.0 0.00 0.01 0.00 52 1010.3
20200923110927 78 160 2.0 0.0 0.00 0.01 0.00 52 1010.4
20200923110843 78 160 2.0 0.0 0.00 0.01 0.00 52 1010.4
20200923110345 78 185 6.0 0.0 0.00 0.01 0.00 53 1010.4
20200923105900 78 216 2.0 0.0 0.00 0.01 0.00 54 1010.5
20200923105344 78 233 6.0 0.0 0.00 0.01 0.00 53 1010.6
20200923104954 78 207 4.0 0.0 0.00 0.01 0.00 54 1010.6
20200923104845 78 207 4.0 0.0 0.00 0.01 0.00 54 1010.6
20200923104342 78 200 3.0 0.0 0.00 0.01 0.00 55 1010.6
20200923103938 78 190 4.0 0.0 0.00 0.01 0.00 55 1010.7
20200923103842 78 190 4.0 0.0 0.00 0.01 0.00 55 1010.7
20200923103456 78 198 0.0 0.0 0.00 0.01 0.00 56 1010.8
20200923103344 78 198 0.0 0.0 0.00 0.01 0.00 56 1010.8
20200923102842 78 182 1.0 0.0 0.00 0.01 0.00 56 1010.8
20200923102344 77 143 2.0 0.0 0.00 0.01 0.00 57 1010.8
20200923101956 76 283 0.0 0.0 0.00 0.01 0.00 56 1010.8
20200923101842 76 283 0.0 0.0 0.00 0.01 0.00 56 1010.8
20200923101342 76 269 0.0 0.0 0.00 0.01 0.00 57 1010.9
20200923101116 76 162 0.0 0.0 0.00 0.01 0.00 59 1011.0
20200923100840 77 258 1.0 0.0 0.00 0.01 0.00 58 1010.9
20200923100340 76 162 0.0 0.0 0.00 0.01 0.00 59 1011.0
20200923095926 76 256 0.0 0.0 0.00 0.01 0.00 59 1011.0
20200923095840 76 256 0.0 0.0 0.00 0.01 0.00 59 1011.0
20200923095340 76 229 0.0 0.0 0.00 0.01 0.00 61 1011.1
20200923094909 75 195 2.0 0.0 0.00 0.01 0.00 63 1011.1
20200923094838 75 195 2.0 0.0 0.00 0.01 0.00 63 1011.1
20200923094334 75 220 0.0 0.0 0.00 0.01 0.00 63 1011.1
20200923093832 75 207 0.0 0.0 0.00 0.01 0.00 63 1011.2
20200923093332 75 214 0.0 0.0 0.00 0.01 0.00 62 1011.2
20200923092909 75 135 0.0 0.0 0.00 0.01 0.00 63 1011.2
20200923092832 75 135 0.0 0.0 0.00 0.01 0.00 63 1011.2
20200923092448 75 140 3.0 0.0 0.00 0.01 0.00 62 1011.2
20200923092331 75 140 3.0 0.0 0.00 0.01 0.00 62 1011.2
20200923091830 76 134 0.0 0.0 0.00 0.01 0.00 61 1011.1
20200923091333 76 191 3.0 0.0 0.00 0.01 0.00 64 1011.1
20200923090838 76 128 0.0 0.0 0.00 0.01 0.00 63 1011.1
20200923090328 75 137 0.0 0.0 0.00 0.01 0.00 65 1011.1
20200923085828 75 68 0.0 0.0 0.00 0.01 0.00 65 1011.0
20200923085408 75 88 0.0 0.0 0.00 0.01 0.00 66 1011.1
20200923085326 75 88 0.0 0.0 0.00 0.01 0.00 66 1011.1
20200923084825 74 136 0.0 0.0 0.00 0.01 0.00 67 1011.1
20200923084319 73 136 0.0 0.0 0.00 0.01 0.00 66 1011.2
20200923083821 73 136 0.0 0.0 0.00 0.01 0.00 66 1011.2
20200923083318 73 136 0.0 0.0 0.00 0.01 0.00 69 1011.2
20200923082817 73 136 0.0 0.0 0.00 0.01 0.00 71 1011.2
20200923082322 72 136 0.0 0.0 0.00 0.01 0.00 71 1011.2
20200923081816 72 136 0.0 0.0 0.00 0.01 0.00 72 1011.3
20200923081305 72 136 0.0 0.0 0.00 0.01 0.00 71 1011.3
20200923080742 72 136 1.0 0.0 0.00 0.01 0.00 71 1011.4
20200923080357 72 139 4.0 0.0 0.00 0.01 0.00 70 1011.5
20200923080241 72 139 4.0 0.0 0.00 0.01 0.00 70 1011.5
20200923075740 72 133 0.0 0.0 0.00 0.01 0.00 71 1011.4
20200923075241 72 133 0.0 0.0 0.00 0.01 0.00 71 1011.3
20200923074742 72 133 0.0 0.0 0.00 0.01 0.00 70 1011.3
20200923074240 72 133 0.0 0.0 0.00 0.01 0.00 71 1011.3
20200923073743 71 129 0.0 0.0 0.00 0.01 0.00 72 1011.2
20200923073239 71 129 0.0 0.0 0.00 0.01 0.00 72 1011.2
20200923072739 71 129 0.0 0.0 0.00 0.01 0.00 72 1011.2
20200923072241 71 129 0.0 0.0 0.00 0.01 0.00 72 1011.1
20200923071738 71 129 0.0 0.0 0.00 0.01 0.00 73 1011.0
20200923071238 71 125 3.0 0.0 0.00 0.01 0.00 73 1011.0
20200923070237 72 166 0.0 0.0 0.00 0.01 0.00 75 1011.0
20200923065740 71 166 0.0 0.0 0.00 0.01 0.00 77 1011.0
20200923065614 70 166 0.0 0.0 0.00 0.01 0.00 78 1011.0
20200923065237 70 166 0.0 0.0 0.00 0.01 0.00 78 1011.0
20200923064725 69 239 0.0 0.0 0.00 0.01 0.00 84 1011.0
20200923064225 68 239 0.0 0.0 0.00 0.01 0.00 85 1010.9
20200923063707 67 242 0.0 0.0 0.00 0.01 0.00 86 1010.9
20200923063206 67 242 0.0 0.0 0.00 0.01 0.00 88 1010.8
20200923062709 67 242 0.0 0.0 0.00 0.01 0.00 88 1010.8
20200923062207 66 242 0.0 0.0 0.00 0.01 0.00 88 1010.8
20200923061712 66 242 0.0 0.0 0.00 0.01 0.00 89 1010.8
20200923061157 66 242 0.0 0.0 0.00 0.01 0.00 89 1010.7
20200923060656 66 242 0.0 0.0 0.00 0.01 0.00 89 1010.8
20200923060157 65 242 0.0 0.0 0.00 0.01 0.00 89 1010.8
20200923055656 65 242 0.0 0.0 0.00 0.01 0.00 89 1010.7
20200923055149 65 242 0.0 0.0 0.00 0.01 0.00 89 1010.7
20200923054649 65 242 0.0 0.0 0.00 0.01 0.00 89 1010.8
20200923054224 64 242 0.0 0.0 0.00 0.01 0.00 89 1010.8
20200923054152 64 242 0.0 0.0 0.00 0.01 0.00 89 1010.8
20200923053648 64 242 0.0 0.0 0.00 0.01 0.00 89 1010.8
20200923053147 64 242 0.0 0.0 0.00 0.01 0.00 89 1010.8
20200923052647 64 242 0.0 0.0 0.00 0.01 0.00 89 1010.8
20200923051643 64 242 0.0 0.0 0.00 0.01 0.00 89 1010.7
20200923051145 64 242 0.0 0.0 0.00 0.01 0.00 89 1010.7
20200923050644 64 242 0.0 0.0 0.00 0.01 0.00 89 1010.6
20200923050141 64 242 0.0 0.0 0.00 0.01 0.00 89 1010.6
20200923045641 64 242 0.0 0.0 0.00 0.01 0.00 89 1010.6
20200923045225 64 250 0.0 0.0 0.00 0.01 0.00 89 1010.7
20200923045143 64 250 0.0 0.0 0.00 0.01 0.00 89 1010.7
20200923044642 64 250 0.0 0.0 0.00 0.01 0.00 89 1010.6
20200923043646 65 251 0.0 0.0 0.00 0.01 0.00 89 1010.7
20200923043139 65 250 0.0 0.0 0.00 0.01 0.00 89 1010.6
20200923042639 65 250 0.0 0.0 0.00 0.01 0.00 89 1010.7
20200923042138 65 250 0.0 0.0 0.00 0.01 0.00 89 1010.7
20200923041638 65 250 0.0 0.0 0.00 0.00 0.00 89 1010.7
20200923041330 65 250 0.0 0.0 0.00 0.00 0.00 89 1010.8
20200923041140 65 250 0.0 0.0 0.00 0.00 0.00 89 1010.8
20200923040637 65 250 0.0 0.0 0.00 0.00 0.00 89 1010.8
20200923040137 65 250 0.0 0.0 0.00 0.00 0.00 89 1010.9
20200923035636 65 248 0.0 0.0 0.00 0.00 0.00 89 1011.0
20200923035137 65 187 0.0 0.0 0.00 0.00 0.00 89 1010.9
20200923034636 65 187 0.0 0.0 0.00 0.00 0.00 89 1011.0
20200923034136 65 187 0.0 0.0 0.00 0.00 0.00 89 1011.0
20200923033635 65 187 0.0 0.0 0.00 0.00 0.00 89 1011.1
20200923033138 65 187 0.0 0.0 0.00 0.00 0.00 89 1011.1
20200923032635 65 186 0.0 0.0 0.00 0.00 0.00 89 1011.1
20200923032134 65 187 0.0 0.0 0.00 0.00 0.00 89 1011.0
20200923031634 65 186 0.0 0.0 0.00 0.00 0.00 88 1011.0
20200923031227 65 187 0.0 0.0 0.00 0.00 0.00 88 1010.9
20200923031134 65 187 0.0 0.0 0.00 0.00 0.00 88 1010.9
20200923030709 65 186 0.0 0.0 0.00 0.00 0.00 88 1011.0
20200923030633 65 186 0.0 0.0 0.00 0.00 0.00 88 1011.0
20200923030134 65 187 0.0 0.0 0.00 0.00 0.00 88 1011.0
20200923025634 65 186 0.0 0.0 0.00 0.00 0.00 88 1010.9
20200923025132 65 187 0.0 0.0 0.00 0.00 0.00 88 1010.9
20200923024635 65 187 0.0 0.0 0.00 0.00 0.00 88 1010.9
20200923024132 65 186 0.0 0.0 0.00 0.00 0.00 88 1011.0
20200923023631 66 186 0.0 0.0 0.00 0.00 0.00 88 1011.0
20200923023218 66 186 0.0 0.0 0.00 0.00 0.00 88 1011.0
20200923023130 66 186 0.0 0.0 0.00 0.00 0.00 88 1011.0
20200923022630 66 187 0.0 0.0 0.00 0.00 0.00 88 1011.0
20200923022241 66 186 0.0 0.0 0.00 0.00 0.00 88 1011.1
20200923022132 66 186 0.0 0.0 0.00 0.00 0.00 88 1011.1
20200923021630 66 186 0.0 0.0 0.00 0.00 0.00 88 1011.2
20200923021129 66 186 0.0 0.0 0.00 0.00 0.00 88 1011.2
20200923020629 66 186 0.0 0.0 0.00 0.00 0.00 88 1011.3
20200923020133 66 186 0.0 0.0 0.00 0.00 0.00 88 1011.2
20200923015635 66 186 0.0 0.0 0.00 0.00 0.00 88 1011.2
20200923015130 66 186 0.0 0.0 0.00 0.00 0.00 88 1011.2
20200923014633 66 186 0.0 0.0 0.00 0.00 0.00 88 1011.3
20200923014222 66 186 0.0 0.0 0.00 0.00 0.00 88 1011.3
20200923014128 66 186 0.0 0.0 0.00 0.00 0.00 88 1011.3
20200923013630 66 186 0.0 0.0 0.00 0.00 0.00 88 1011.3
20200923013128 66 186 0.0 0.0 0.00 0.00 0.00 87 1011.3
20200923012627 66 186 0.0 0.0 0.00 0.00 0.00 87 1011.3
20200923012242 66 186 0.0 0.0 0.00 0.00 0.00 87 1011.4
20200923012205 66 186 0.0 0.0 0.00 0.00 0.00 87 1011.4
20200923012128 66 186 0.0 0.0 0.00 0.00 0.00 87 1011.4
20200923011627 66 186 0.0 0.0 0.00 0.00 0.00 87 1011.5
20200923011127 66 186 0.0 0.0 0.00 0.00 0.00 87 1011.5
20200923010630 66 186 0.0 0.0 0.00 0.00 0.00 87 1011.4
20200923010126 66 186 0.0 0.0 0.00 0.00 0.00 87 1011.5
20200923005626 66 186 0.0 0.0 0.00 0.00 0.00 87 1011.4
20200923005127 66 186 0.0 0.0 0.00 0.00 0.00 87 1011.4
20200923004622 66 186 0.0 0.0 0.00 0.00 0.00 87 1011.4
20200923004213 66 186 0.0 0.0 0.00 0.00 0.00 87 1011.5
20200923004122 66 186 0.0 0.0 0.00 0.00 0.00 87 1011.5
20200923003631 66 186 0.0 0.0 0.00 0.00 0.00 87 1011.4
20200923003121 66 186 0.0 0.0 0.00 0.00 0.00 87 1011.5
20200923002621 66 186 0.0 0.0 0.00 0.00 0.00 87 1011.5
20200923002120 66 186 0.0 0.0 0.00 0.00 0.00 87 1011.5
20200923001622 66 186 0.0 0.0 0.00 0.00 0.00 87 1011.6
20200923001117 66 186 0.0 0.0 0.00 0.00 0.00 87 1011.7
20200923000713 66 186 0.0 0.0 0.00 0.00 0.00 87 1011.7
20200923000621 66 186 0.0 0.0 0.00 0.00 0.00 87 1011.7
20200923000120 66 186 3.0 0.0 0.00 0.00 0.00 86 1011.8
20200922235856 66 277 0.0 0.0 0.00 0.00 0.00 87 1011.8
20200922235616 66 277 0.0 0.0 0.00 0.00 0.00 87 1011.8
20200922235120 66 277 0.0 0.0 0.00 0.00 0.00 87 1011.7
20200922234616 66 276 0.0 0.0 0.00 0.00 0.00 87 1011.7
20200922234116 66 276 0.0 0.0 0.00 0.00 0.00 86 1011.8
20200922233119 66 276 0.0 0.0 0.00 0.00 0.00 86 1011.8
20200922232614 66 276 0.0 0.0 0.00 0.00 0.00 86 1011.7
20200922232050 66 258 0.0 0.0 0.00 0.00 0.00 86 1011.7
20200922231549 66 262 1.0 0.0 0.00 0.00 0.00 86 1011.8
20200922231051 66 251 0.0 0.0 0.00 0.00 0.00 86 1011.8
20200922230548 66 253 0.0 0.0 0.00 0.00 0.00 86 1011.9
20200922230046 66 254 0.0 0.0 0.00 0.00 0.00 86 1012.0
20200922225544 66 254 0.0 0.0 0.00 0.00 0.00 86 1012.0
20200922225044 67 260 0.0 0.0 0.00 0.00 0.00 86 1012.0
20200922224546 67 261 0.0 0.0 0.00 0.00 0.00 86 1012.0
20200922224044 67 264 4.0 0.0 0.00 0.00 0.00 86 1011.9